Time,TemperatureF,DewpointF,PressureIn,WindDirection,WindDirectionDegrees,WindSpeedMPH,WindSpeedGustMPH,Humidity,HourlyPrecipIn,Conditions,Clouds,dailyrainin,SoftwareType,DateUTC
2016-09-30 00:07:00,50.2,48.0,30.34,ENE,71,5.0,13.0,91,0.01,,,0.00,weatherlink.com 1.10,2016-09-30 04:07:00,
2016-09-30 00:22:00,50.1,48.0,30.34,East,83,4.0,12.0,91,0.00,,,0.00,weatherlink.com 1.10,2016-09-30 04:22:00,
2016-09-30 00:37:00,49.7,48.0,30.34,ENE,73,8.0,13.0,92,0.00,,,0.00,weatherlink.com 1.10,2016-09-30 04:37:00,
2016-09-30 00:52:00,49.5,47.0,30.34,ENE,62,4.0,11.0,92,0.00,,,0.00,weatherlink.com 1.10,2016-09-30 04:52:00,
2016-09-30 01:08:00,49.6,47.0,30.34,East,90,6.0,9.0,92,0.00,,,0.00,weatherlink.com 1.10,2016-09-30 05:08:00,
2016-09-30 01:22:00,49.6,47.0,30.34,East,91,8.0,10.0,91,0.00,,,0.00,weatherlink.com 1.10,2016-09-30 05:22:00,
2016-09-30 01:37:00,49.7,47.0,30.35,ENE,68,5.0,10.0,90,0.00,,,0.00,weatherlink.com 1.10,2016-09-30 05:37:00,
2016-09-30 01:52:00,49.7,47.0,30.34,ENE,78,4.0,9.0,90,0.00,,,0.00,weatherlink.com 1.10,2016-09-30 05:52:00,
2016-09-30 02:07:00,49.6,47.0,30.34,ENE,60,7.0,10.0,89,0.00,,,0.00,weatherlink.com 1.10,2016-09-30 06:07:00,
2016-09-30 02:23:00,49.5,46.0,30.34,East,86,6.0,13.0,88,0.00,,,0.00,weatherlink.com 1.10,2016-09-30 06:23:00,
2016-09-30 02:37:00,49.3,46.0,30.34,ENE,60,5.0,11.0,88,0.00,,,0.00,weatherlink.com 1.10,2016-09-30 06:37:00,
2016-09-30 02:52:00,48.8,46.0,30.34,ENE,75,5.0,15.0,89,0.01,,,0.01,weatherlink.com 1.10,2016-09-30 06:52:00,
2016-09-30 03:08:00,48.1,46.0,30.34,ENE,75,4.0,14.0,92,0.02,,,0.02,weatherlink.com 1.10,2016-09-30 07:08:00,
2016-09-30 03:23:00,47.8,46.0,30.34,East,79,4.0,15.0,92,0.02,,,0.02,weatherlink.com 1.10,2016-09-30 07:23:00,
2016-09-30 03:40:00,47.4,46.0,30.33,ENE,75,4.0,9.0,94,0.03,,,0.03,weatherlink.com 1.10,2016-09-30 07:40:00,
2016-09-30 04:08:00,46.9,45.0,30.33,East,79,5.0,8.0,94,0.02,,,0.04,weatherlink.com 1.10,2016-09-30 08:08:00,
2016-09-30 04:23:00,46.7,45.0,30.33,NE,54,4.0,7.0,95,0.03,,,0.05,weatherlink.com 1.10,2016-09-30 08:23:00,
2016-09-30 04:38:00,46.5,45.0,30.32,ENE,73,6.0,7.0,95,0.03,,,0.06,weatherlink.com 1.10,2016-09-30 08:38:00,
2016-09-30 04:53:00,46.4,45.0,30.32,ENE,68,5.0,9.0,95,0.03,,,0.06,weatherlink.com 1.10,2016-09-30 08:53:00,
2016-09-30 05:08:00,46.4,45.0,30.33,ENE,68,5.0,9.0,95,0.03,,,0.07,weatherlink.com 1.10,2016-09-30 09:08:00,
2016-09-30 05:23:00,46.4,45.0,30.33,ENE,65,6.0,7.0,96,0.03,,,0.08,weatherlink.com 1.10,2016-09-30 09:23:00,
2016-09-30 05:38:00,46.3,45.0,30.33,ENE,67,5.0,6.0,96,0.07,,,0.13,weatherlink.com 1.10,2016-09-30 09:38:00,
2016-09-30 05:53:00,46.1,45.0,30.33,ENE,70,7.0,8.0,96,0.11,,,0.17,weatherlink.com 1.10,2016-09-30 09:53:00,
2016-09-30 06:08:00,46.1,45.0,30.33,ENE,69,3.0,8.0,96,0.13,,,0.20,weatherlink.com 1.10,2016-09-30 10:08:00,
2016-09-30 06:23:00,46.2,45.0,30.33,ENE,72,5.0,8.0,97,0.14,,,0.22,weatherlink.com 1.10,2016-09-30 10:23:00,
2016-09-30 06:38:00,46.2,45.0,30.33,ENE,64,4.0,6.0,97,0.11,,,0.24,weatherlink.com 1.10,2016-09-30 10:38:00,
2016-09-30 06:53:00,46.1,45.0,30.33,ENE,57,5.0,8.0,97,0.10,,,0.27,weatherlink.com 1.10,2016-09-30 10:53:00,
2016-09-30 07:08:00,46.0,45.0,30.33,ENE,77,4.0,8.0,97,0.10,,,0.30,weatherlink.com 1.10,2016-09-30 11:08:00,
2016-09-30 07:23:00,46.0,45.0,30.33,ENE,62,4.0,9.0,97,0.09,,,0.32,weatherlink.com 1.10,2016-09-30 11:23:00,
2016-09-30 07:38:00,45.9,45.0,30.32,ENE,77,4.0,11.0,97,0.11,,,0.35,weatherlink.com 1.10,2016-09-30 11:38:00,
2016-09-30 07:53:00,45.8,45.0,30.33,ENE,66,4.0,6.0,97,0.11,,,0.39,weatherlink.com 1.10,2016-09-30 11:53:00,
2016-09-30 08:08:00,45.9,45.0,30.33,ENE,72,4.0,6.0,97,0.14,,,0.44,weatherlink.com 1.10,2016-09-30 12:08:00,
2016-09-30 08:23:00,45.9,45.0,30.34,ENE,76,7.0,8.0,97,0.18,,,0.50,weatherlink.com 1.10,2016-09-30 12:23:00,
2016-09-30 08:38:00,46.0,45.0,30.34,East,79,3.0,13.0,97,0.18,,,0.53,weatherlink.com 1.10,2016-09-30 12:38:00,
2016-09-30 08:53:00,46.1,45.0,30.34,ENE,68,3.0,9.0,97,0.20,,,0.59,weatherlink.com 1.10,2016-09-30 12:53:00,
2016-09-30 09:08:00,46.2,45.0,30.34,ENE,66,3.0,5.0,97,0.19,,,0.63,weatherlink.com 1.10,2016-09-30 13:08:00,
2016-09-30 09:23:00,46.4,46.0,30.35,ENE,72,3.0,6.0,97,0.20,,,0.70,weatherlink.com 1.10,2016-09-30 13:23:00,
2016-09-30 09:38:00,46.7,46.0,30.34,ENE,57,3.0,11.0,97,0.20,,,0.73,weatherlink.com 1.10,2016-09-30 13:38:00,
2016-09-30 09:53:00,46.8,46.0,30.34,ENE,67,5.0,10.0,97,0.19,,,0.78,weatherlink.com 1.10,2016-09-30 13:53:00,
2016-09-30 10:10:00,47.1,46.0,30.34,ENE,78,7.0,11.0,97,0.15,,,0.79,weatherlink.com 1.10,2016-09-30 14:10:00,
2016-09-30 10:23:00,47.1,46.0,30.34,NE,40,8.0,11.0,97,0.09,,,0.79,weatherlink.com 1.10,2016-09-30 14:23:00,
2016-09-30 10:38:00,47.1,46.0,30.34,ENE,77,6.0,12.0,97,0.08,,,0.82,weatherlink.com 1.10,2016-09-30 14:38:00,
2016-09-30 10:53:00,47.2,46.0,30.34,ENE,65,7.0,14.0,97,0.04,,,0.82,weatherlink.com 1.10,2016-09-30 14:53:00,
2016-09-30 11:09:00,47.5,47.0,30.34,ENE,70,6.0,13.0,97,0.05,,,0.84,weatherlink.com 1.10,2016-09-30 15:09:00,
2016-09-30 11:23:00,47.8,47.0,30.32,ENE,70,8.0,14.0,97,0.07,,,0.86,weatherlink.com 1.10,2016-09-30 15:23:00,
2016-09-30 11:39:00,48.2,47.0,30.32,East,82,6.0,18.0,97,0.04,,,0.86,weatherlink.com 1.10,2016-09-30 15:39:00,
2016-09-30 11:53:00,48.5,48.0,30.32,East,79,9.0,16.0,97,0.04,,,0.86,weatherlink.com 1.10,2016-09-30 15:53:00,
2016-09-30 12:08:00,48.8,48.0,30.32,ENE,57,7.0,17.0,97,0.02,,,0.86,weatherlink.com 1.10,2016-09-30 16:08:00,
2016-09-30 12:24:00,48.9,48.0,30.31,ENE,67,7.0,13.0,97,0.00,,,0.86,weatherlink.com 1.10,2016-09-30 16:24:00,
2016-09-30 12:38:00,49.2,48.0,30.31,ENE,76,7.0,16.0,97,0.00,,,0.86,weatherlink.com 1.10,2016-09-30 16:38:00,
2016-09-30 12:53:00,49.3,49.0,30.31,ENE,72,9.0,12.0,97,0.01,,,0.87,weatherlink.com 1.10,2016-09-30 16:53:00,
2016-09-30 13:08:00,49.6,49.0,30.30,ENE,68,5.0,11.0,97,0.01,,,0.87,weatherlink.com 1.10,2016-09-30 17:08:00,
2016-09-30 13:24:00,49.9,49.0,30.30,NE,34,8.0,12.0,97,0.01,,,0.87,weatherlink.com 1.10,2016-09-30 17:24:00,
2016-09-30 13:39:00,49.9,49.0,30.29,East,84,7.0,12.0,97,0.01,,,0.87,weatherlink.com 1.10,2016-09-30 17:39:00,
2016-09-30 13:54:00,50.1,49.0,30.29,ENE,78,5.0,12.0,97,0.00,,,0.87,weatherlink.com 1.10,2016-09-30 17:54:00,
2016-09-30 14:09:00,50.2,49.0,30.29,ENE,77,5.0,12.0,97,0.00,,,0.87,weatherlink.com 1.10,2016-09-30 18:09:00,
2016-09-30 14:24:00,50.6,50.0,30.28,ENE,69,6.0,11.0,97,0.00,,,0.87,weatherlink.com 1.10,2016-09-30 18:24:00,
2016-09-30 14:39:00,50.7,50.0,30.27,ENE,65,7.0,10.0,97,0.00,,,0.87,weatherlink.com 1.10,2016-09-30 18:39:00,
2016-09-30 14:54:00,50.8,50.0,30.27,East,85,5.0,13.0,97,0.00,,,0.87,weatherlink.com 1.10,2016-09-30 18:54:00,
2016-09-30 15:09:00,51.1,50.0,30.27,ENE,58,5.0,10.0,97,0.00,,,0.87,weatherlink.com 1.10,2016-09-30 19:09:00,
2016-09-30 15:24:00,51.4,51.0,30.27,ENE,78,9.0,11.0,97,0.00,,,0.87,weatherlink.com 1.10,2016-09-30 19:24:00,
2016-09-30 15:39:00,51.2,50.0,30.27,ENE,74,5.0,11.0,97,0.00,,,0.87,weatherlink.com 1.10,2016-09-30 19:39:00,
2016-09-30 15:54:00,51.4,51.0,30.27,ENE,65,7.0,9.0,97,0.00,,,0.87,weatherlink.com 1.10,2016-09-30 19:54:00,
2016-09-30 16:09:00,51.6,51.0,30.26,NE,51,5.0,11.0,97,0.00,,,0.87,weatherlink.com 1.10,2016-09-30 20:09:00,
2016-09-30 16:24:00,51.7,51.0,30.26,ENE,65,8.0,10.0,97,0.00,,,0.87,weatherlink.com 1.10,2016-09-30 20:24:00,
2016-09-30 16:39:00,51.7,51.0,30.25,ENE,73,7.0,12.0,97,0.00,,,0.87,weatherlink.com 1.10,2016-09-30 20:39:00,
2016-09-30 16:54:00,51.8,51.0,30.26,ENE,66,6.0,14.0,97,0.00,,,0.87,weatherlink.com 1.10,2016-09-30 20:54:00,
2016-09-30 17:09:00,51.8,51.0,30.26,East,82,7.0,14.0,97,0.00,,,0.87,weatherlink.com 1.10,2016-09-30 21:09:00,
2016-09-30 17:24:00,51.8,51.0,30.26,ENE,65,6.0,12.0,97,0.00,,,0.87,weatherlink.com 1.10,2016-09-30 21:24:00,
2016-09-30 17:39:00,51.7,51.0,30.26,ENE,64,6.0,17.0,97,0.00,,,0.87,weatherlink.com 1.10,2016-09-30 21:39:00,
2016-09-30 17:54:00,51.6,51.0,30.26,ENE,63,9.0,21.0,97,0.00,,,0.87,weatherlink.com 1.10,2016-09-30 21:54:00,
2016-09-30 18:09:00,51.5,51.0,30.26,ENE,61,6.0,11.0,97,0.00,,,0.87,weatherlink.com 1.10,2016-09-30 22:09:00,
2016-09-30 18:24:00,51.2,50.0,30.27,East,91,6.0,13.0,97,0.00,,,0.87,weatherlink.com 1.10,2016-09-30 22:24:00,
2016-09-30 18:39:00,50.9,50.0,30.27,East,86,6.0,11.0,97,0.00,,,0.87,weatherlink.com 1.10,2016-09-30 22:39:00,
2016-09-30 18:54:00,50.7,50.0,30.27,East,89,6.0,10.0,97,0.00,,,0.87,weatherlink.com 1.10,2016-09-30 22:54:00,
2016-09-30 19:10:00,50.5,50.0,30.27,ENE,68,8.0,12.0,97,0.00,,,0.87,weatherlink.com 1.10,2016-09-30 23:10:00,